User: anonymous
Location: Unspecified
(0.0000°N, 0.0000°E)
Time: 15:26:28
(UTC+02:00)
Language:

Iridium 15 - Orbit

View from above orbital plane
View from above orbital plane
View from above satellite
View from above satellite

Ground track
Ground track

The orbit data is extracted from the following two-line orbital elements,

1 24869U 97034A   14258.45911705  .00000188  00000-0  59988-4 0   614
2 24869 086.3920 082.2249 0002070 106.4861 312.0230 14.34220934899763
Epoch (UTC): 15 September 2014 11:01:07
Eccentricity: 0.0002070
inclination: 86.3920°
perigee height: 776 km
apogee height: 779 km
right ascension of ascending node: 82.2249°
argument of perigee: 106.4861°
revolutions per day: 14.34220934
mean anomaly at epoch: 312.0230°
orbit number at epoch: 89976

The dashed part of the orbit path shows where the satellite is in the earth's shadow,  

DLR